Weather History for Perryton, TX

Change the Weather History Date:

Sunday, February 16, 2014

  Actual Average Record
Temperature  
Mean Temperature 46 °F -  
Max Temperature 64 °F 50 °F 81 °F (2011)
Min Temperature 29 °F 22 °F 4 °F (1978)
Degree Days  
Heating Degree Days 18    
Moisture  
Dew Point 33 °F    
Average Humidity 67    
Maximum Humidity 97    
Minimum Humidity 31    
Precipitation  
Precipitation 0.00 in - - ()
Sea Level Pressure  
Sea Level Pressure 29.93 in    
Wind  
Wind Speed 9 mph (SSW)    
Max Wind Speed 20 mph    
Max Gust Speed 24 mph    
Visibility 10 miles    
Events      
Averages and records for this station are not official NWS values.
T = Trace of Precipitation, MM = Missing Value Source: NWS Daily Summary

Daily Weather History Graph

Daily Weather History Graph

Search for Another Location

Airport:

Trip Planner

Search our weather history database for the weather conditions in past years. The results will help you decide how hot, cold, wet, or windy it might be!

Date:

Astronomy

Feb. 16, 2014 Rise Set
Actual Time 7:29 AM CST 6:25 PM CST
Civil Twilight 7:03 AM CST 6:51 PM CST
Nautical Twilight 6:33 AM CST 7:21 PM CST
Astronomical Twilight 6:03 AM CST 7:51 PM CST
Moon 8:18 PM CST (2/16) 8:04 AM CST (2/16)
Length of Visible Light 11h 48m
Length of Day
10h 55m
Full, 97% of the Moon is Illuminated
Feb 16
Full
Feb 22
Last Quarter
Mar 1
New
Mar 8
First Quarter
Mar 16
Full

Hourly Weather History & Observations

Time (CST) Temp. Windchill Dew Point Humidity Pressure Visibility Wind Dir Wind Speed Gust Speed Precip Events Conditions
12:15 AM 33.6 °F 27.5 °F 31.8 °F 93% 30.14 in 10.0 mi WNW 6.9 mph - N/A   Clear
12:35 AM 33.3 °F 26.4 °F 31.8 °F 94% 30.13 in 10.0 mi NW 8.1 mph - N/A   Clear
12:55 AM 32.7 °F 26.4 °F 31.3 °F 94% 30.12 in 10.0 mi NW 6.9 mph - N/A   Clear
1:15 AM 32.9 °F 27.5 °F 31.6 °F 95% 30.12 in 10.0 mi NW 5.8 mph - N/A   Clear
1:35 AM 32.9 °F 29.8 °F 31.6 °F 95% 30.12 in 10.0 mi NNW 3.5 mph - N/A   Clear
1:55 AM 32.9 °F 28.5 °F 31.6 °F 95% 30.11 in 10.0 mi NNW 4.6 mph - N/A   Clear
2:15 AM 32.0 °F 27.5 °F 30.9 °F 96% 30.11 in 10.0 mi NNW 4.6 mph - N/A   Clear
2:35 AM 32.0 °F 24.8 °F 31.1 °F 96% 30.10 in 10.0 mi North 8.1 mph - N/A   Clear
2:55 AM 31.8 °F 25.4 °F 30.6 °F 95% 30.10 in 10.0 mi NNW 6.9 mph - N/A   Clear
3:15 AM 31.6 °F 24.4 °F 30.2 °F 94% 30.09 in 10.0 mi NNW 8.1 mph - N/A   Clear
3:35 AM 31.8 °F 24.6 °F 30.9 °F 96% 30.08 in 10.0 mi North 8.1 mph - N/A   Clear
3:55 AM 31.6 °F 25.1 °F 30.6 °F 96% 30.06 in 10.0 mi NNW 6.9 mph - N/A   Clear
4:15 AM 31.8 °F 26.2 °F 30.9 °F 96% 30.05 in 10.0 mi NNW 5.8 mph - N/A   Clear
4:35 AM 31.8 °F 26.2 °F 30.7 °F 96% 30.05 in 10.0 mi NNW 5.8 mph - N/A   Clear
4:55 AM 31.5 °F 24.9 °F 30.4 °F 96% 30.05 in 10.0 mi NW 6.9 mph - N/A   Clear
5:15 AM 31.6 °F 26.0 °F 30.6 °F 96% 30.05 in 10.0 mi NW 5.8 mph - N/A   Clear
5:35 AM 31.1 °F 25.4 °F 30.2 °F 96% 30.04 in 10.0 mi NW 5.8 mph - N/A   Clear
5:55 AM 30.2 °F 24.3 °F 29.3 °F 96% 30.04 in 10.0 mi NW 5.8 mph - N/A   Clear
6:15 AM 30.2 °F 25.4 °F 29.3 °F 96% 30.03 in 10.0 mi NW 4.6 mph - N/A   Clear
6:35 AM 29.7 °F 23.7 °F 28.9 °F 97% 30.03 in 10.0 mi NW 5.8 mph - N/A   Clear
6:55 AM 29.8 °F 23.0 °F 28.9 °F 96% 30.03 in 10.0 mi WNW 6.9 mph - N/A   Clear
7:15 AM 30.0 °F 23.2 °F 28.9 °F 96% 30.04 in 10.0 mi WNW 6.9 mph - N/A   Clear
7:35 AM 30.2 °F 23.4 °F 29.3 °F 96% 30.04 in 10.0 mi West 6.9 mph - N/A   Clear
7:55 AM 30.0 °F 24.1 °F 28.9 °F 96% 30.03 in 10.0 mi West 5.8 mph - N/A   Clear
8:15 AM 31.5 °F - 30.4 °F 96% 30.03 in 10.0 mi Calm Calm - N/A   Clear
8:35 AM 32.9 °F - 31.8 °F 96% 30.04 in 10.0 mi Calm Calm - N/A   Clear
8:55 AM 35.2 °F 32.4 °F 33.6 °F 94% 30.04 in 10.0 mi WSW 3.5 mph - N/A   Clear
9:15 AM 38.3 °F 35.9 °F 35.1 °F 88% 30.04 in 10.0 mi SW 3.5 mph - N/A   Clear
9:35 AM 41.2 °F 38.2 °F 35.6 °F 81% 30.04 in 10.0 mi SSW 4.6 mph - N/A   Clear
9:55 AM 42.8 °F 39.3 °F 36.0 °F 77% 30.04 in 10.0 mi SSW 5.8 mph - N/A   Clear
10:15 AM 44.2 °F 39.7 °F 36.7 °F 75% 30.03 in 10.0 mi South 8.1 mph - N/A   Clear
10:35 AM 47.5 °F - 37.0 °F 67% 30.03 in 10.0 mi SSE 11.5 mph - N/A   Clear
10:55 AM 49.1 °F - 35.8 °F 60% 30.02 in 10.0 mi South 12.7 mph - N/A   Clear
11:15 AM 50.0 °F - 35.6 °F 58% 30.01 in 10.0 mi SSE 13.8 mph 19.6 mph N/A   Clear
11:35 AM 52.3 °F - 32.9 °F 48% 29.99 in 10.0 mi SSE 17.3 mph 23.0 mph N/A   Clear
11:55 AM 52.9 °F - 32.5 °F 46% 29.98 in 10.0 mi SSE 18.4 mph - N/A   Clear
12:15 PM 53.4 °F - 33.4 °F 47% 29.97 in 10.0 mi SSE 18.4 mph - N/A   Clear
12:35 PM 54.1 °F - 34.9 °F 48% 29.96 in 10.0 mi SSE 15.0 mph 19.6 mph N/A   Clear
12:55 PM 55.4 °F - 34.9 °F 46% 29.94 in 10.0 mi SSE 13.8 mph 20.7 mph N/A   Clear
1:15 PM 57.0 °F - 34.7 °F 43% 29.91 in 10.0 mi SSE 16.1 mph 24.2 mph N/A   Clear
1:35 PM 56.7 °F - 34.5 °F 43% 29.90 in 10.0 mi South 16.1 mph 20.7 mph N/A   Clear
1:55 PM 58.3 °F - 34.7 °F 41% 29.88 in 10.0 mi SSE 17.3 mph 21.9 mph N/A   Clear
2:15 PM 59.2 °F - 34.3 °F 39% 29.85 in 10.0 mi South 15.0 mph - N/A   Clear
2:35 PM 61.9 °F - 32.9 °F 34% 29.84 in 10.0 mi SSE 18.4 mph 23.0 mph N/A   Clear
2:55 PM 61.7 °F - 32.7 °F 34% 29.84 in 10.0 mi South 16.1 mph - N/A   Clear
3:15 PM 62.2 °F - 32.5 °F 33% 29.83 in 10.0 mi South 17.3 mph 23.0 mph N/A   Clear
3:35 PM 63.5 °F - 32.4 °F 31% 29.82 in 10.0 mi South 18.4 mph 24.2 mph N/A   Clear
3:55 PM 63.0 °F - 32.2 °F 32% 29.81 in 10.0 mi South 17.3 mph - N/A   Clear
4:15 PM 63.1 °F - 32.2 °F 31% 29.80 in 10.0 mi South 16.1 mph - N/A   Clear
4:35 PM 63.0 °F - 32.4 °F 32% 29.80 in 10.0 mi South 17.3 mph - N/A   Clear
4:55 PM 64.4 °F - 33.1 °F 31% 29.78 in 10.0 mi SSE 19.6 mph - N/A   Clear
5:15 PM 63.0 °F - 32.9 °F 32% 29.78 in 10.0 mi SSE 15.0 mph - N/A   Clear
5:35 PM 61.9 °F - 33.8 °F 35% 29.78 in 10.0 mi SSE 13.8 mph - N/A   Clear
5:55 PM 59.2 °F - 34.3 °F 39% 29.78 in 10.0 mi SSE 13.8 mph - N/A   Clear
6:15 PM 56.8 °F - 34.7 °F 43% 29.78 in 10.0 mi SE 11.5 mph - N/A   Clear
6:35 PM 54.5 °F - 34.3 °F 47% 29.77 in 10.0 mi SSE 12.7 mph - N/A   Clear
6:55 PM 53.1 °F - 34.2 °F 49% 29.76 in 10.0 mi SE 12.7 mph - N/A   Clear
7:15 PM 51.4 °F - 34.3 °F 52% 29.77 in 10.0 mi SE 11.5 mph - N/A   Clear
7:35 PM 50.0 °F - 34.5 °F 55% 29.76 in 10.0 mi SE 10.4 mph - N/A   Clear
7:55 PM 49.1 °F - 34.7 °F 58% 29.76 in 10.0 mi SE 9.2 mph - N/A   Clear
8:15 PM 50.0 °F - 35.2 °F 57% 29.75 in 10.0 mi SE 12.7 mph - N/A   Clear
8:35 PM 48.0 °F - 35.1 °F 61% 29.74 in 10.0 mi SSE 13.8 mph - N/A   Clear
8:55 PM 48.0 °F - 35.4 °F 62% 29.74 in 10.0 mi South 12.7 mph - N/A   Clear
9:15 PM 46.9 °F - 35.1 °F 63% 29.74 in 10.0 mi South 10.4 mph - N/A   Clear
9:35 PM 45.3 °F 40.6 °F 34.7 °F 66% 29.74 in 10.0 mi South 9.2 mph - N/A   Clear
9:55 PM 44.2 °F 40.3 °F 34.2 °F 68% 29.75 in 10.0 mi SSW 6.9 mph - N/A   Clear
10:15 PM 45.1 °F 39.9 °F 34.2 °F 65% 29.75 in 10.0 mi SSW 10.4 mph - N/A   Clear
10:35 PM 43.9 °F 38.3 °F 33.8 °F 68% 29.75 in 10.0 mi SSW 10.4 mph - N/A   Clear
10:55 PM 47.3 °F - 33.3 °F 58% 29.75 in 10.0 mi SW 13.8 mph - N/A   Clear
11:15 PM 53.1 °F - 29.7 °F 41% 29.77 in 10.0 mi West 18.4 mph - N/A   Clear
11:35 PM 52.2 °F - 29.3 °F 41% 29.77 in 10.0 mi West 17.3 mph - N/A   Clear
11:55 PM 50.9 °F - 29.1 °F 43% 29.78 in 10.0 mi West 16.1 mph - N/A   Clear